Altus, OK

5:34 AM CST on February 24, 2017 (GMT -0600)
Altus Municipal

Weather History for KAXS - December, 2013

Change the Weather History Date:

Thursday, December 19, 2013

  Actual Average (KLTS) Record (KLTS)
Temperature  
Mean Temperature 59 °F -  
Max Temperature 69 °F 48 °F 68 °F (2013)
Min Temperature 49 °F 25 °F 8 °F (1996)
Degree Days  
Heating Degree Days 6    
Growing Degree Days 9 (Base 50)    
Moisture  
Dew Point 45 °F    
Average Humidity 65    
Maximum Humidity 85    
Minimum Humidity 38    
Precipitation  
Precipitation 0.00 in - - ()
Sea Level Pressure  
Sea Level Pressure 29.72 in    
Wind  
Wind Speed 14 mph (South)    
Max Wind Speed 25 mph    
Max Gust Speed 31 mph    
Visibility 10 miles    
Events      
Averages and records for this station are not official NWS values.
T = Trace of Precipitation, MM = Missing Value Source: NWS Daily Summary

Daily Weather History Graph

Daily Weather History Graph

Search for Another Location

Airport or City:

Trip Planner

Search our weather history database for the weather conditions in past years. The results will help you decide how hot, cold, wet, or windy it might be!

Date:

Astronomy

Dec. 19, 2013 Rise Set
Actual Time 7:39 AM CST 5:29 PM CST
Civil Twilight 7:11 AM CST 5:57 PM CST
Nautical Twilight 6:40 AM CST 6:29 PM CST
Astronomical Twilight 6:09 AM CST 6:59 PM CST
Moon 7:51 PM CST (12/19) 9:03 AM CST (12/19)
Length of Visible Light 10h 45m
Length of Day
9h 49m
Waning Gibbous, 95% of the Moon is Illuminated
Dec 19
Waning Gibbous
Dec 25
Last Quarter
Jan 1
New
Jan 7
First Quarter
Jan 15
Full

Hourly Weather History & Observations

Time (CST) Temp. Dew Point Humidity Pressure Visibility Wind Dir Wind Speed Gust Speed Precip Events Conditions
12:15 AM 54.7 °F 41.4 °F 61% 29.85 in 10.0 mi South 12.7 mph - N/A   Clear
12:35 AM 54.7 °F 41.5 °F 61% 29.84 in 10.0 mi South 15.0 mph - N/A   Clear
12:55 AM 54.3 °F 41.9 °F 63% 29.83 in 10.0 mi South 17.3 mph - N/A   Clear
1:15 AM 54.1 °F 42.3 °F 64% 29.82 in 10.0 mi South 17.3 mph - N/A   Clear
1:35 AM 54.5 °F 42.8 °F 65% 29.81 in 10.0 mi South 16.1 mph - N/A   Clear
1:55 AM 54.1 °F 43.0 °F 66% 29.80 in 10.0 mi South 17.3 mph - N/A   Clear
2:15 AM 53.8 °F 43.2 °F 67% 29.80 in 10.0 mi South 15.0 mph - N/A   Clear
2:35 AM 53.2 °F 43.3 °F 69% 29.81 in 10.0 mi South 13.8 mph - N/A   Clear
3:00 AM 52.7 °F 43.7 °F 71% 29.79 in 10.0 mi South 15.0 mph - N/A   Clear
3:15 AM 52.9 °F 44.2 °F 72% 29.79 in 10.0 mi South 15.0 mph 20.7 mph N/A   Clear
3:35 AM 52.7 °F 44.6 °F 74% 29.79 in 10.0 mi South 12.7 mph - N/A   Clear
3:55 AM 52.2 °F 44.6 °F 75% 29.79 in 10.0 mi South 11.5 mph - N/A   Clear
4:15 AM 52.7 °F 45.1 °F 75% 29.78 in 10.0 mi South 11.5 mph - N/A   Clear
4:35 AM 52.9 °F 45.5 °F 76% 29.79 in 10.0 mi South 10.4 mph - N/A   Clear
4:55 AM 53.1 °F 45.9 °F 77% 29.77 in 10.0 mi South 12.7 mph - N/A   Clear
5:15 AM 53.1 °F 46.0 °F 77% 29.76 in 10.0 mi South 13.8 mph - N/A   Clear
5:35 AM 52.5 °F 45.9 °F 78% 29.75 in 10.0 mi South 13.8 mph - N/A   Clear
5:55 AM 52.0 °F 45.5 °F 79% 29.75 in 10.0 mi South 13.8 mph - N/A   Clear
6:15 AM 51.8 °F 45.3 °F 79% 29.75 in 10.0 mi South 15.0 mph - N/A   Clear
6:35 AM 51.1 °F 45.1 °F 80% 29.75 in 10.0 mi South 11.5 mph - N/A   Clear
6:55 AM 50.2 °F 44.6 °F 81% 29.74 in 10.0 mi SSE 11.5 mph - N/A   Clear
7:15 AM 49.1 °F 44.6 °F 84% 29.75 in 10.0 mi SSE 9.2 mph - N/A   Clear
7:35 AM 49.3 °F 44.6 °F 84% 29.75 in 10.0 mi SSE 6.9 mph - N/A   Clear
7:55 AM 49.1 °F 44.6 °F 84% 29.76 in 10.0 mi SE 5.8 mph - N/A   Clear
8:15 AM 49.1 °F 44.8 °F 85% 29.76 in 10.0 mi SSE 10.4 mph - N/A   Clear
8:35 AM 50.0 °F 45.5 °F 85% 29.76 in 10.0 mi SSE 9.2 mph - N/A   Clear
8:55 AM 50.5 °F 45.7 °F 83% 29.76 in 10.0 mi SSE 10.4 mph - N/A   Clear
9:15 AM 52.5 °F 46.6 °F 80% 29.76 in 10.0 mi South 12.7 mph - N/A   Clear
9:16 AM 53.6 °F 46.4 °F 77% 29.76 in 10.0 mi South 12.7 mph - N/A   Clear
9:40 AM 54.0 °F 47.3 °F 78% 29.76 in 10.0 mi South 13.8 mph - N/A   Clear
9:55 AM 54.9 °F 47.5 °F 76% 29.76 in 10.0 mi South 13.8 mph - N/A   Clear
10:15 AM 56.5 °F 48.0 °F 73% 29.77 in 10.0 mi South 16.1 mph - N/A   Clear
10:35 AM 58.1 °F 48.0 °F 69% 29.76 in 10.0 mi South 20.7 mph 25.3 mph N/A   Clear
10:55 AM 57.6 °F 47.7 °F 70% 29.76 in 10.0 mi South 17.3 mph - N/A   Clear
11:15 AM 58.8 °F 48.2 °F 68% 29.75 in 10.0 mi South 19.6 mph 23.0 mph N/A   Clear
11:35 AM 61.0 °F 48.2 °F 63% 29.74 in 10.0 mi South 23.0 mph - N/A   Clear
11:55 AM 61.9 °F 47.7 °F 60% 29.73 in 10.0 mi SSW 23.0 mph 27.6 mph N/A   Clear
12:15 PM 63.5 °F 47.7 °F 56% 29.72 in 10.0 mi SSW 20.7 mph - N/A   Clear
12:35 PM 64.2 °F 47.5 °F 55% 29.70 in 10.0 mi South 19.6 mph - N/A   Clear
12:55 PM 66.0 °F 46.2 °F 49% 29.69 in 10.0 mi SSW 24.2 mph 31.1 mph N/A   Clear
1:15 PM 68.2 °F 45.7 °F 44% 29.68 in 10.0 mi SSW 21.9 mph 26.5 mph N/A   Clear
1:35 PM 67.5 °F 44.1 °F 43% 29.67 in 10.0 mi SSW 21.9 mph 26.5 mph N/A   Clear
1:55 PM 67.3 °F 43.9 °F 43% 29.67 in 10.0 mi SSW 25.3 mph 29.9 mph N/A   Clear
2:15 PM 67.3 °F 43.7 °F 42% 29.66 in 10.0 mi SSW 19.6 mph 25.3 mph N/A   Clear
2:35 PM 68.9 °F 43.2 °F 39% 29.66 in 10.0 mi SSW 18.4 mph 24.2 mph N/A   Clear
2:55 PM 68.0 °F 45.5 °F 44% 29.65 in 10.0 mi South 18.4 mph 24.2 mph N/A   Clear
3:15 PM 69.8 °F 44.6 °F 40% 29.65 in 10.0 mi South 18.4 mph - N/A   Clear
3:35 PM 69.4 °F 42.6 °F 38% 29.64 in 10.0 mi South 18.4 mph - N/A   Clear
3:55 PM 68.5 °F 43.3 °F 40% 29.64 in 10.0 mi SSW 17.3 mph 23.0 mph N/A   Clear
4:15 PM 69.4 °F 42.4 °F 38% 29.64 in 10.0 mi South 17.3 mph 21.9 mph N/A   Clear
4:35 PM 69.8 °F 42.8 °F 38% 29.64 in 10.0 mi SSW 17.3 mph - N/A   Clear
4:55 PM 68.4 °F 43.7 °F 41% 29.64 in 10.0 mi South 11.5 mph - N/A   Clear
5:15 PM 66.7 °F 44.4 °F 44% 29.64 in 10.0 mi South 12.7 mph - N/A   Clear
5:35 PM 64.6 °F 44.1 °F 47% 29.64 in 10.0 mi South 10.4 mph - N/A   Clear
5:55 PM 65.1 °F 43.9 °F 46% 29.63 in 10.0 mi South 13.8 mph - N/A   Clear
6:15 PM 64.4 °F 44.6 °F 49% 29.64 in 10.0 mi South 15.0 mph - N/A   Clear
6:35 PM 64.4 °F 45.7 °F 51% 29.64 in 10.0 mi South 17.3 mph 21.9 mph N/A   Clear
6:55 PM 63.7 °F 46.8 °F 54% 29.65 in 10.0 mi South 18.4 mph - N/A   Clear
7:15 PM 63.5 °F 47.3 °F 56% 29.65 in 10.0 mi South 17.3 mph - N/A   Clear
7:40 PM 61.5 °F 47.3 °F 60% 29.66 in 10.0 mi SSE 11.5 mph - N/A   Clear
7:55 PM 59.5 °F 46.8 °F 63% 29.67 in 10.0 mi SSE 10.4 mph - N/A   Clear
8:15 PM 57.2 °F 46.6 °F 68% 29.67 in 10.0 mi SSE 10.4 mph - N/A   Clear
8:35 PM 55.4 °F 46.4 °F 72% 29.66 in 10.0 mi SSE 10.4 mph - N/A   Clear
8:55 PM 55.8 °F 47.1 °F 73% 29.67 in 10.0 mi SSE 10.4 mph - N/A   Clear
9:15 PM 56.7 °F 47.5 °F 71% 29.66 in 10.0 mi South 12.7 mph - N/A   Clear
9:35 PM 55.9 °F 47.3 °F 73% 29.67 in 10.0 mi South 10.4 mph - N/A   Clear
9:55 PM 57.6 °F 48.2 °F 71% 29.67 in 10.0 mi South 12.7 mph - N/A   Clear
10:15 PM 56.7 °F 47.8 °F 72% 29.67 in 10.0 mi South 9.2 mph - N/A   Clear
10:35 PM 56.7 °F 47.7 °F 72% 29.67 in 10.0 mi South 12.7 mph - N/A   Clear
10:55 PM 55.4 °F 47.3 °F 74% 29.68 in 10.0 mi South 9.2 mph - N/A   Clear
11:15 PM 54.5 °F 47.1 °F 76% 29.68 in 10.0 mi South 9.2 mph - N/A   Clear
11:35 PM 53.6 °F 46.8 °F 78% 29.69 in 10.0 mi SSW 9.2 mph - N/A   Clear
11:55 PM 52.7 °F 46.4 °F 79% 29.69 in 10.0 mi SSW 6.9 mph - N/A   Clear